[ hide orbit diagram ]
For accurate long-term ephemerides, please instead use our Horizons system.This orbit viewer was implemented using two-body methods, and hence should not be used for determining accurate long-term trajectories (over several years or decades) or planetary encounter circumstances.
Orbital Elements at Epoch 2459000.5 (2020-May-31.0) TDB
Reference: JPL 23 (heliocentric ecliptic J2000)
Element | Value | Uncertainty (1-sigma) | Units |
e | .1502671955911863 | 3.711e-08 | |
a | 2.415592108839719 | 8.2796e-09 | au |
q | 2.052607856952175 | 9.0749e-08 | au |
i | 2.88648768170075 | 3.6013e-06 | deg |
node | 9.661617914040109 | 8.3323e-05 | deg |
peri | 103.0975983691986 | 8.4189e-05 | deg |
M | 299.2732249158545 | 1.3511e-05 | deg |
tp | 2459231.819128695083 (2021-Jan-17.31912869) | 5.1958e-05 | TDB |
period | 1371.304275829579 3.75 | 7.0503e-06 1.93e-08 | d yr |
n | .2625237931109167 | 1.3497e-09 | deg/d |
Q | 2.778576360727263 | 9.5237e-09 | au |
|
| | Orbit Determination Parameters
Additional Information
|
[ show covariance matrix ]
Physical Parameter Table
Parameter |
Symbol |
Value |
Units |
Sigma |
Reference |
Notes |
absolute magnitude |
H |
15.5 |
|
n/a |
MPO431591 |
|
diameter |
diameter |
2.508 |
km |
0.781 |
urn:nasa:pds:neowise_diameters_albedos::2.0[mainbelt] (http://adsabs.harvard.edu/abs/2011ApJ...741...68M) |
|
geometric albedo |
albedo |
0.177 |
|
0.063 |
urn:nasa:pds:neowise_diameters_albedos::2.0[mainbelt] (http://adsabs.harvard.edu/abs/2011ApJ...741...68M) |
|
|
8039 Grandprism | Discovered 1993 Sept. 15 by H. Debehogne and E. W. Elst at the European Southern Observatory. |
The Grand Prism Objectiv-40cm astrograph (GPO), used without prism, has served for many years for searching for minor planets at La Silla. From 1978 to 1993, more than 1000 new minor planets were found with this instrument. |
NOTE: some special characters may not display properly (any characters within {} are an attempt to place the proper accent above a character) |
Reference: 20030106/MPCPages.arc | Last Updated: 2003-10-02 |
|
[ show close-approach data ]
|